[Date Prev][Date Next][Thread Prev][Thread Next][Date Index][Thread Index]

[jamsat-news:1143] jas2info #155



========================   最新情報   ==============================

        Last updated :Mon.30-Aug.-1999 17:00 (JST) #155

====================================================================
   
     衛星情報 FOシリーズの軌道要素、テレメトリ、QSOの状況等を
   まとめてみました.

  1)  FO−29(JAS-2、ふじ3号)は、8月30日(月)15:03(JST)の
     パスはJARLのホムページの「ふじ3号」のスケジュールのとうりJAアナログ
     モードで運用されていました. 
       
 ■ 軌道要素1:「jamsat−keps:916」より 
              SB KEPS @ AMSAT  $ORB99239.N
       2Line Orbital Elements 99239.AMSAT

  HR AMSAT ORBITAL ELEMENTS FOR AMATEUR SATELLITES IN NASA FORMAT
  FROM WA5QGD FORT WORTH,TX August 27, 1999
  SEND SUBSCRIBE/UNSUBSCRIBE TO majordomo@amsat.org ONLY
  BID: ORB99239.N
  
  DECODE 2-LINE ELSETS WITH THE FOLLOWING KEY:
 1 AAAAAU 00  0  0 BBBBB.BBBBBBBB  .CCCCCCCC  00000-0  00000-0 0  DDDZ
 2 AAAAA EEE.EEEE FFF.FFFF GGGGGGG HHH.HHHH III.IIII JJ.JJJJJJJJKKKKKZ
 KEY: A-CATALOGNUM B-EPOCHTIME C-DECAY D-ELSETNUM E-INCLINATION F-RAAN
 G-ECCENTRICITY H-ARGPERIGEE I-MNANOM J-MNMOTION K-ORBITNUM Z-CHECKSUM

 TO ALL RADIO AMATEURS BT
 
  FO-29
  1 24278U 96046B   99237.88638993 -.00000023  00000-0  16400-4 0 02727
  2 24278 098.5667 179.7352 0350597 273.7710 082.3416 13.52677039149232
 
 ■ 軌道要素2:「jamsat−keps:918」より                         
         SB KEPS @ AMSAT  $ORB99239.O
         Orbital Elements  99239.OSCAR

  HR AMSAT ORBITAL ELEMENTS FOR OSCAR SATELLITES
  FROM WA5QGD FORT WORTH,TX August 27, 1999
  SEND SUBSCRIBE/UNSUBSCRIBE TO majordomo@amsat.org ONLY
  BID: ORB99239.O
  TO ALL RADIO AMATEURS BT

   Satellite: FO-29
  Catalog number: 24278
  Epoch time:      99237.88638993
  Element set:    0272
  Inclination:      098.5667 deg
  RA of node:       179.7352 deg
  Eccentricity:    0.0350597
  Arg of perigee:   273.7710 deg
  Mean anomaly:     082.3416 deg
  Mean motion:   13.52677039 rev/day
  Decay rate:       -2.3e-07 rev/day^2
  Epoch rev:           14923
  Checksum:              363
  
 -----------------------------------------------------------
  2)FO−29(JAS-2,ふじ3号)の 8月30日(月)の15:05(JST)のパスでは
  JAアナログモードで運用され、それまでの取得したテレメトリデータの一部分です.
  
  AS14983C1   30Aug99
  JST 15:05 - 15:17

 HI HI AE C7 88 55 02 9F FF 0D 00 31 4B 3F 8A 60 93 90 B7 7D BF BD BF BE BC 
 HI HI AE C7 88 55 07 9F FF 0D 00 31 4E 40 8C 60 94 91 B0 67 BF BD BE 0A BC 
 HI HI AE 07 88 55 0C 9F FF 0D 00 31 50 4A 8D B0 93 90 B0 70 BE BC BE BE BC 
 HI HI AE C7 88 55 1O 9F FF 0D 00 31 53 3A 8C 61 95 92 B0 7C BE BC BE BE BC 
 HI HI AE C7 88 55 16 9F FF 0D 00 31 57 35 87 60 93 91 B0 7D BE BC BE BE BC 
 HI HI AE 07 88 55 1B 9F FF 0D 00 31 59 33 8C 60 93 90 B0 D8 BE BC BE BE BC 
 HI HI AE C7 88 55 00 9F FF 0D 00 31 58 33 8E 60 93 90 A0 81 BE BC BE BE BC 
 HI HI AE C7 88 55 05 9F 1E 0D 00 31 57 34 8F 60 93 92 A1 85 BE BC BE BE BC 
 HI HI AE C7 88 55 0A 9F FF 0D 00 31 57 34 8E 60 93 91 A1 76 BE BC BD BE BC 
 HI HI AE C7 88 55 0F 9F 1E 0D 00 31 55 34 8D 60 93 90 8F 97 BE BC BD BD BC 
 HI HI AE C7 88 55 14 9F 05 0D 00 31 50 34 8C 60 93 90 B0 70 BE BB BD BD BC 
 HI HI AE C7 88 55 19 9F FF 0D 00 31 4A 44 8B 60 93 91 B0 6E BE BB BD BD BD 
 HI HI AE C7 88 55 1E 9F FF 0D 00 31 47 44 8O 60 94 91 B1 7D BE BB BD BD BC 
 HI HI AE C7 88 55 03 9F FF 0D 00 31 43 46 89 60 94 93 B0 D9 BE BB BD BD BC 
 HI HI AE C7 88 55 08 9F FF 0D 00 31 3D 4A 88 60 93 90 B0 64 BD BB BD BD BC 
 HI HI AE C7 88 55 0D 9F FF 25 00 31 3A 4A 87 60 93 91 B0 6E BD BB BD BD BC 
 HI HI AE C7 88 55 12 9F 05 0D 00 31 37 4C 86 60 93 91 B0 6E BD BB BD BC BD 

**************************************
  
  AS14982C1  30Aug99
  JST 13:18 - 13:34

 HI HI AE c7 88 55 0F 9F 0A 0D 00 31 3F 64 78 4C 96 92 B0 7B BF BD BE BE BC 
 HI HI AE C7 88 55 16 9F 1E 0D 00 31 44 5F 76 61 94 90 9F 80 BF BD BE BE BC 
 HI HI AE C7 88 55 1B 9F FF 0D 00 31 49 DB 71 61 94 91 B0 6D BF BC BE BE BC 
 HI HI AE 07 88 55 00 9F FF 1A 00 31 4D 59 6D 52 94 92 A1 91 BE BD BE BE BC
 HI HI AE C7 88 55 05 9F FF 0D 00 31 58 5C 77 60 94 91 B9 85 BE BC BE BE BC 
 HI HI AE C7 88 55 1A 9F FF 0D 00 31 60 5D 7B 60 93 90 B0 86 BE BC BE BE BC 
 HI HI AE C7 88 55 0F 9F FF 0D 00 31 65 5E 81 49 95 93 A1 7B BE BC BE BE BC 
 HI HI AE C7 88 55 14 9F FF 0D 00 31 6E 62 83 61 94 91 B0 9E BE BC BE BE BC 
 HI HI AE C7 88 55 19 9F FF 0D 00 31 74 5D 84 60 94 91 B0 80 BE BD BE BE BC
 HI HI AE C7 88 55 1E 9F FF 0D 00 31 78 5B 84 60 94 91 B0 73 BE BC BE BD BC 
 HI HI AE C7 88 55 03 9F FF 0D 00 31 78 57 82 60 94 91 B0 74 BE BD BE BD BC
 HI HI AE C7 88 55 08 9F FF 0D 00 31 76 5E 80 60 94 91 B0 81 BE BD BE BD BC 
 HI HI AE C7 88 55 13 9F FF 0D 00 31 78 4E 7F 60 94 91 B0 67 BD BD BD BD BC
 HI HI AE C7 88 55 18 9F FF 0D 00 31 6F 40 7D 60 93 92 A1 61 BD BB BD BD BC 
 HI HI AE C7 88 55 1T 9R FF 0D 00 31 6D 3C 7A 60 93 90 0A 74 BD BB BD BD BC 
 HI HI AE C7 88 55 02 9F FF 0D 00 31 6B 38 79 60 93 91 B0 72 BD BA BD BD BD 
 HI HI AE C7 88 55 07 9F FF 0D 00 31 67 32 78 60 93 91 B0 76 BD BA BD BD BC 
 HI HI AE C7 88 55 0C 9F FF 0D 00 31 63 2E 7B 60 93 91 D0 87 BD BA BC BD BC 
 HI HI AE C7 88 55 11 9F FF 1E 00 31 61 2C 7A 60 93 90 9F 9A BD BA BC BD BC 
 HI HI AE C7 88 55 16 9F FF 0D 00 31 5E 2C 7D 60 93 91 B0 8E BD BA BC BD BC 
 HI HI AE C7 88 55 1B 9F FF 0D 00 31 54 2B 7B 60 93 91 B0 85 BD BA BC BD BC

**************************************

   AS14956P  28Aug99

  8J1JCS>BEACON [08/28/99  15:07:48]:
  JAS-2    '97/08/28 06:07:40
  9C 03 03 08 00 9D 00 00 00 00
  00 00 9D B6 55 88 45 95 91 9F
  AA 52 A8 02 B5 BC BF BF BD BD
         
  8J1JCS>BEACON [08/28/99  15:07:50]:D5 02 00 09 00 00 82 40 00 00
  D4 68 DE 5B 20 9C A0 7F 8C 85
  00 00 00 B2 7D B3 F7 00 00 00
                                      
  8J1JCS>BEACON [08/28/99  15:07:51]:
  User not connect.
                                                     
  8J1JCS>BEACON [08/28/99  15:07:52]:
  Total    1 File(s)

   No.  Date  UTC    To    From   Size   Subject
  0001 08/15 11:19 ALL    DK5EC      174 Hello from Koenigswin
  8J1JCS>BEACON [08/28/99  15:07:53]:ter, Germany
                                                     
  8J1JCS>BEACON [08/28/99  15:09:48]:
  JAS-2    '97/08/28 06:09:40
  9C 03 63 08 00 9D 00 00 00 00
  00 00 9D B6 91 8A 60 94 91 B0
  AA 52 A9 02 C8 BC BF BF BC BD
         
  8J1JCS>BEACON [08/28/99  15:09:50]:D5 02 00 09 00 00 82 40 00 00
  98 68 D4 54 21 9D A1 7F 8C 86
  00 00 00 B2 7D B3 F7 00 00 00
                                      
  8J1JCS>BEACON [08/28/99  15:09:51]:
  User not connect.

**********************************
 
  AS14955P   28Aug99

 8J1JCS>BEACON [08/28/99  13:21:45]:
 JAS-2    '97/08/28 04:21:40
 9C 03 63 08 00 9D 00 00 00 00
 00 00 9D A9 E9 8C 60 94 91 B0
 AA 52 AA 02 E2 BC BF BF BD BD
         
 8J1JCS>BEACON [08/28/99  13:21:46]:D5 02 00 09 00 00 81 40 00 00
 DF 62 E2 57 0C 1F 1F 7F 8C 81
 00 00 00 B2 7F B3 F7 00 00 00
                                      
 8J1JCS>BEACON [08/28/99  13:21:47]:
 User not connect.
                                                     
 8J1JCS>BEACON [08/28/99  13:21:49]:
 Total    1 File(s)

  No.  Date  UTC    To    From   Size   Subject
 0001 08/15 11:19 ALL    DK5EC      174 Hello from Koenigswin
 8J1JCS>BEACON [08/28/99  13:21:50]:ter, Germany
                                                     
 8J1JCS>BEACON [08/28/99  13:23:45]:
 JAS-2    '97/08/28 04:23:40
 9C 03 63 08 00 9D 00 00 00 00
 00 00 9D AA 25 6F 60 94 92 B0
 AA 52 A8 02 C8 BC BF BF BC BD
         
 8J1JCS>BEACON [08/28/99  13:23:46]:D5 02 00 09 00 00 81 40 00 00
 DF 62 D6 4F 0C 13 14 7F 8B 81
 00 00 00 B2 7F B3 F7 00 00 00
                                      
 8J1JCS>BEACON [08/28/99  13:23:47]:
 User not connect.
                                                     
 8J1JCS>BEACON [08/28/99  13:23:48]:
 Total    1 File(s)

  No.  Date  UTC    To    From   Size   Subject
 0001 08/15 11:19 ALL    DK5EC      174 Hello from Koenigswin
 8J1JCS>BEACON [08/28/99  13:23:50]:ter, Germany   

***********************************
     
 3)テレメトリ換算値例  
  
  上記 JAS-2の 30日分JAアナログモードテレメトリ、
 最終行の換算値例

  AS14983C1   30Aug99
  JST 15:05 - 15:17

  HI HI AE C7 88 55 12 9F 05 0D 00 31 37 4C 86 60 93 91 B0 6E BD BB BD BC BD 
  
 テレメトリ      内   容      換算値   単 位 
 3C	磁気センサーZ軸 = 	26960.8	[nT]
 3D	磁気センサX軸	 =	37254.9	[nT]
 4A	太陽電池発生電流 =	 1313.7	[mA]
 4B	B充放電電流	=	 -118.4	[mA]
 4C	B端子電圧	=	   15.8	[V]
 4D	B中間端子電圧	=	    7.0	[V]
 5A	バス電圧 	=	   17.3	[V]
 5B	JTA送信電力	=	  616.9	[mW]
 5C 	構体温度1	=	    8.5	[℃]
 5D	構体温度2	=	    9.3	[℃]
 6A	構体温度3	=	    8.5	[℃]
 6B	構体温度4	=	    8.9	[℃]
 6C	Bセル温度	=	    8.5	[℃]

  *計算処理は OFFICE 97 を使用.

------------------  FO-29 (JAS-2,ふじ2号)のテレメトリについて  ----------------------- 
  
  FO-29のJDテレメトリについてJE9PEL/1脇田 美根夫氏が[jamsat-bb:4646]に投稿されて
 いましたので転載させて頂きました. 

  衛星FO-29 は、8月28日(土)ではJD(デジタル)モードになっていて、
 2分ごとにビーコンを発信しています。(435.915MHz, USB, 1200bps)
 下記に見えるように、FO-29(JAS-2)の時刻表示が '97 と、間違って
 表示されています。

 8J1JCS>BEACON [08/28/99  11:49:45] <UI C>:
 JAS-2    '97/08/28 02:49:40
 9C 03 63 08 00 9D 00 00 00 00
 00 00 9D 9F 21 89 60 93 90 B0
 AB 51 A8 02 CA BC BD BD BA BC

 8J1JCS>BEACON [08/28/99  11:49:47] <UI C>:D5 02 00 09 00 00 80 40 00 00
 FA 62 C0 3F 07 1D 1E 81 8E 84
 00 00 00 AE 7F B3 F7 00 00 00

 8J1JCS>BEACON [08/28/99  11:49:48] <UI C>:
 User not connect.

 8J1JCS>BEACON [08/28/99  11:51:47] <UI C>:D5 02 00 09 00 00 80 40 00 00
 FA 62 BD 52 07 15 16 80 8D 83
 00 00 00 AE 7F B3 F7 00 00 00

 8J1JCS>BEACON [08/28/99  11:53:45] <UI C>:
 JAS-2    '97/08/28 02:53:40
 9C 03 63 08 00 9D 00 00 00 00
 00 00 9D 9F 99 76 60 93 90 B0
 AA 52 A8 02 CA BC BD BC B9 BB

 ----------------------------------------------
 Name : JE9PEL/1 脇田
 Mail : je9pel@jamsat.or.jp
 URL  : http://www.ne.jp/asahi/hamradio/je9pel/
 QTH  : Yokohama, Japan
 Date : 28 Aug.1999
 ----------------------------------------------
 ===================================================================================
  4)FO−20(ふじ2号)のCWテレメトリは6月15日(火)18:56(JST)の
     パスではテレメトリーが単一トーンの連続音から唸りを伴った連続音、さらにゆらぎの
     ある信号になり、いままでより若干信号が弱くなっていました.

-----------------------    FO-20(JAS-1b)道要素   -------------------------------
 
